Taurus 1
1 44530U 19059C   25156.83549459  .00005164  00000-0  95502-3 0  9996
2 44530  98.6063 296.0509 0009863  55.8866 304.3271 14.65813337303394
Duchifat 3
1 44854U 19089C   25156.81517549  .00035570  00000-0  70095-3 0  9995
2 44854  36.9443  19.1285 0005102 289.8215  70.1992 15.46278522302369
TO-108
1 44881U 19093C   25156.78806094  .00000944  00000-0  11512-3 0  9998
2 44881  97.7924 232.5170 0012522 240.9646 119.0315 14.85594584295513
FloripaSat 1
1 44885U 19093G   25156.67482818  .00004195  00000-0  35595-3 0  9993
2 44885  97.8180 244.2675 0009371 209.9642 150.1045 14.98447682296169
RS-44
1 44909U 19096E   25156.56666759  .00000010  00000-0  47728-5 0  9994
2 44909  82.5221 229.9441 0216440 305.1459  52.9529 12.79740800254228
UPMSat 2
1 46276U 20061E   25156.47551143  .00062976  00000-0  56266-3 0  9991
2 46276  97.2440 230.7209 0001996 162.4175 197.7156 15.68205174264824
SALSAT
1 46495U 20068K   25156.47599465  .00005713  00000-0  24804-3 0  9999
2 46495  97.8597 134.3149 0011671 167.6343 192.5181 15.22693172257904
CubeSX-Sirius-HSE
1 47951U 21022V   25156.82948695  .04011909  24926-5  12149-2 0  9994
2 47951  97.4049  71.2683 0008839 212.1093 147.9662 16.26848417233273
CubeSX-HSE
1 47952U 21022W   25156.71694898  .03425034  24756-5  12350-2 0  9998
2 47952  97.4037  71.4081 0009181 209.5412 150.5362 16.24790655233276
GRBAlpha
1 47959U 21022AD  25156.75068360  .01378162  13771-2  12517-2 0  9992
2 47959  97.3978  71.4034 0007833 188.3009 171.8148 16.12878110232099
TUBIN
1 48900U 21059X   25156.68385417  .00036632  00000-0  44941-3 0  9994
2 48900  97.6746 325.5947 0003190 226.8570 133.2419 15.60242117219431
LEDSAT
1 49069U 21073D   25156.20248677  .00060845  00000-0  74204-3 0  9999
2 49069  97.3891 237.5578 0010181 101.3578 258.8823 15.60230479210758
CUTE
1 49263U 21088D   25156.15323640  .00012215  00000-0  24588-3 0  9997
2 49263  97.4511 232.2803 0006770 249.3832 110.6691 15.46722774203749
TeikyoSat 4
1 49396U 21102B   25156.50249207  .00001826  00000-0  12365-3 0  9992
2 49396  97.4108 195.0786 0013703 141.5105 218.7104 15.07628788195931
Z-Sat
1 49399U 21102E   25156.78636421  .00004011  00000-0  22108-3 0  9998
2 49399  97.3804 198.4242 0019775 115.6167 244.7111 15.14382743196401
KOSEN 1
1 49402U 21102H   25156.58997221  .00005542  00000-0  25758-3 0  9993
2 49402  97.3711 201.6183 0017709  93.7658 266.5603 15.20244821196689
HO-113
1 50466U 21131B   25156.80249863  .00000579  00000-0  19459-3 0  9990
2 50466  98.5100 246.1739 0005098 136.9949 223.1639 14.40810760180906
Foresail-1
1 52766U 22057AL  25156.40625418  .00352382  51681-4  87230-3 0  9992
2 52766  97.6037 307.9698 0007775 252.2942 107.7485 15.95877437169233
SNUGLITE 2
1 52899U 22065F   25156.38710177  .00001302  00000-0  26195-3 0  9993
2 52899  98.1682 298.4014 0008790 122.3043 237.9011 14.63205337155879
UmKA 1 (RS40S)
1 57172U 23091G   25156.84292396  .00005019  00000-0  26933-3 0  9990
2 57172  97.5583 212.2444 0013913 354.1683   5.9385 15.15324007106912
CubeBel-2 (EU11S)
1 57175U 23091K   25156.81657685  .00008440  00000-0  40277-3 0  9994
2 57175  97.5584 213.3414 0011770   3.9310 356.2015 15.19262451106987
VERONIKA
1 58261U 23174F   25156.82462367  .00122969  00000-0  10359-2 0  9995
2 58261  97.4116 242.7756 0002255 101.4466 258.7049 15.69446964 88095
ENSO
1 58470U 23185J   25156.84231036  .00044341  00000-0  64762-3 0  9993
2 58470  97.3739 231.8418 0008056 103.8800 256.3351 15.55492517 84450
EIRSAT-1
1 58472U 23185L   25156.81355150  .00088833  00000-0  83714-3 0  9998
2 58472  97.3693 233.6496 0005513 116.5832 243.5994 15.66777964 84576
SONATE-2
1 59112U 24043Q   25156.32455152  .00015113  00000-0  43702-3 0  9997
2 59112  97.5127 287.4177 0012293 127.5533 232.6829 15.35647290 69683
MO-122
1 60209U 24125G   25156.33994440  .00016307  00000-0  46442-3 0  9996
2 60209  97.2804   8.0065 0019898 148.8346 211.4083 15.35976764 51308
GRBBeta
1 60237U 24128C   25156.21080716  .00004433  00000-0  33750-3 0  9994
2 60237  61.9912  94.7910 0051686  56.5410 304.0607 15.02595384 49549
Curium One
1 60242U 24128H   25156.18807039  .00007452  00000-0  52104-3 0  9999
2 60242  61.9810  93.2272 0051651  52.5715 308.0060 15.05043986 49572
ROBUSTA-3A
1 60243U 24128J   25156.52166206  .00006038  00000-0  43104-3 0  9991
2 60243  61.9881  92.8737 0050422  50.3105 310.2417 15.04579932 49616
CatSat
1 60246U 24125J   25156.57223545  .00008265  00000-0  27625-3 0  9990
2 60246  97.2602   7.4959 0044291 108.1506 252.4566 15.30289574 49378
HYPERVIEW-1G (RS66S)
1 61772U 24199AP  25156.83095324  .00016376  00000-0  47742-3 0  9991
2 61772  97.3547  25.6972 0013180 198.3968 161.6801 15.35358172 76385
AO-123
1 61781U 24199AY  25156.84805299  .00005601  00000-0  20515-3 0  9990
2 61781  97.3560  24.6411 0015011 205.1120 154.9391 15.28320937 76311
ZIMSAT 2
1 61783U 24199BA  25156.83069415  .00028793  00000-0  70973-3 0  9993
2 61783  97.3525  26.2816 0013281 194.3151 165.7721 15.40430601 79573
HADES-R (SO-124)
1 62690U 25009CK  25156.48701733  .00030416  00000-0  10824-2 0  9992
2 62690  97.4092 237.3089 0004538 118.2134 241.9564 15.28903057 21529
HYDRA-T
1 62692U 25009CM  25156.21140478  .00032610  00000-0  11518-2 0  9997
2 62692  97.4092 237.0662 0004190 116.3078 243.8593 15.29135277 21485
JINJUSat 1B
1 63210U 25052A   25156.25233093  .00010699  00000-0  49133-3 0  9990
2 63210  97.4427  50.4299 0003968   5.7935 354.3345 15.20567823 12594
NUSHSAT 1
1 63211U 25052B   25156.44528118  .00011516  00000-0  52517-3 0  9996
2 63211  97.4419  50.6209 0004182  11.1224 349.0103 15.20788105 12625
TEVEL2-4
1 63213U 25052D   25156.45808099  .00011121  00000-0  51164-3 0  9997
2 63213  97.4335  50.5167 0003999  32.2010 327.9469 15.20493473 12629
TEVEL2-5
1 63214U 25052E   25156.26118489  .00010975  00000-0  50531-3 0  9997
2 63214  97.4334  50.3217 0004015  32.0707 328.0772 15.20472208 12592
TEVEL2-6
1 63215U 25052F   25156.46064430  .00011109  00000-0  51197-3 0  9995
2 63215  97.4336  50.5146 0004060  31.8902 328.2578 15.20436019 12622
TEVEL2-1
1 63217U 25052H   25156.60277320  .00009146  00000-0  42473-3 0  9992
2 63217  97.4309  50.6044 0004612  40.8128 319.3452 15.20222228 12644
TEVEL2-2
1 63218U 25052J   25156.20814379  .00010174  00000-0  47215-3 0  9992
2 63218  97.4310  50.2156 0004737  42.5298 317.6303 15.20215424 12581
TEVEL2-3
1 63219U 25052K   25156.20824867  .00010186  00000-0  47278-3 0  9998
2 63219  97.4311  50.2151 0004741  42.1910 317.9690 15.20210618 12582
TEVEL2-8
1 63237U 25052AD  25155.67739727  .00009273  00000-0  44570-3 0  9995
2 63237  97.4372  49.6167 0009436  43.2797 316.9177 15.18999128 12495
TEVEL2-9
1 63238U 25052AE  25156.60182704  .00008671  00000-0  41748-3 0  9992
2 63238  97.4375  50.5233 0009409  39.9129 320.2796 15.18958897 12634
TEVEL2-7
1 63239U 25052AF  25156.20842013  .00009634  00000-0  46397-3 0  9990
2 63239  97.4375  50.1310 0009469  41.7418 318.4537 15.18918373 12575
HYDRA-W
1 63490U 25052BL  25155.94689803  .00029255  00000-0  12398-2 0  9999
2 63490  97.4326  50.1212 0013195  38.2263 321.9906 15.23017173 12552
HADES-ICM
1 63492U 25052BN  25156.15774592  .00022324  00000-0  95885-3 0  9998
2 63492  97.4329  50.3028 0013547  40.7759 319.4489 15.22613713 12585
